Flag for U.S.A. Weather past 2 weeks in Vallejo, California, U.S.A.

Now
77 °F

Sunny.


Feels Like: 78 °F
Forecast: 58 / 75 °F
Wind: 20 mph from West

Location: Napa County Airport

Current Time: Jul 7, 2015 at 4:10:44 PM

Latest Report: Jul 7, 2015 at 3:54 PM


Visibility: 10 mi

Pressure: 29.88 "Hg

Humidity: 45%

Dew point: 54 °F

Location of VallejoLocation

Historic Weather in Vallejo — Graph

°F

Vallejo temperature yesterday

Maximum temperature yesterday: 82 °F (at 4:01 PM)
Minimum temperature yesterday: 58 °F (at 2:54 AM)
Average temperature yesterday: 66 °F

Past Weeks' High & Low Weather Summary

 TemperatureHumidityPressure
High87 °F (Jun 30, 1:54 PM)97% (Jun 26, 5:54 AM)30.05 "Hg (Jun 26, 5:54 AM)
Low50 °F (Jun 23, 5:54 AM)33% (Jun 30, 1:54 PM)29.75 "Hg (Jun 30, 4:54 PM)
Average66 °F72%29.90 "Hg
* Reported Jun 22 2:54 PM — Jul 7 2:54 PM, Vallejo, Weather by CustomWeather, © 2015

Note: Actual official high and low records may vary slightly from our data, if they occured in-between our weather recording intervals... More about our weather records

Advertising

Vallejo weather history for previous 24 hours

 ConditionsComfort  
Time TempWeatherWind HumidityBarometerVisibility
2:54 PM
Tue, Jul 7
80 °FSunny.16 mph39%29.90 "Hg10 mi
1:54 PM76 °FSunny.18 mph56%29.92 "Hg10 mi
12:54 PM77 °FSunny.16 mph54%29.94 "Hg10 mi
11:54 AM75 °FSunny.15 mph58%29.96 "Hg10 mi
10:54 AM74 °FSunny.12 mph53%29.96 "Hg10 mi
9:54 AM68 °FSunny.13 mph68%29.98 "Hg10 mi
8:54 AM65 °FScattered clouds.12 mph76%29.99 "Hg10 mi
7:54 AM65 °FScattered clouds.14 mph76%29.99 "Hg10 mi
6:54 AM61 °FScattered clouds.10 mph87%29.99 "Hg10 mi
5:54 AM58 °FClear.10 mph93%29.97 "Hg10 mi
4:54 AM58 °FClear.7 mph93%29.96 "Hg10 mi
3:54 AM59 °FClear.10 mph90%29.96 "Hg10 mi
2:54 AM59 °FClear.10 mph90%29.96 "Hg10 mi
1:54 AM60 °FClear.15 mph86%29.97 "Hg10 mi
12:54 AM60 °FClear.15 mph83%29.97 "Hg10 mi
11:54 PM
Mon, Jul 6
61 °FClear.16 mph81%29.98 "Hg10 mi
10:54 PM61 °FClear.15 mph81%29.98 "Hg10 mi
9:54 PM62 °FClear.17 mph78%29.98 "Hg10 mi
8:54 PM64 °FSunny.15 mph75%29.96 "Hg10 mi
7:54 PM68 °FSunny.16 mph63%29.95 "Hg10 mi
6:54 PM73 °FSunny.18 mph53%29.94 "Hg10 mi
5:54 PM75 °FSunny.21 mph48%29.93 "Hg10 mi
4:54 PM79 °FSunny.20 mph42%29.94 "Hg10 mi
4:01 PM82 °FSunny.16 mph38%29.99 "Hg10 mi
Weather by CustomWeather, © 2015

See weather overviewHow to use our weather pages